Погода в Сретенске

Погода в Сретенске : погода сейчас, прогноз погоды и архив. Всё, что Вы хотите узнать о погоде в Сретенске!

Хотите узнать прогноз погоды в Сретенске? Тогда Вам сюда: Погода в Сретенске

Поиск расширенной информации на нашем сайте:

Другие новости

Новости СМИ2

Главная страница сайта

Новости сайта

03.07.2017

Напоминаем, что на нашем специализированном сайте Метеоцентр.Азия вы можете получить высокодетализированные автоматические прогнозы погоды по пунктам России, СНГ и мира в авиационном формате (включающие направление и скорость ветра, видимость, явления погоды, количество и форму облачности, нижнюю и верхнюю границу облачности).


Погода в Сретенске - сегодня

Время (UTC), дата Ветер
(°,м/с) 
Видим.   Явления Облачность Т
(°С)
Тd
(°С)
f(%) Тe
(°С)
Pmin
(гПа)
dP
(гПа)
Po
(мм)
O2
(г/м3)
Тmin Tmax R s Состояние
почвы
00 18.09.17 тихо ()   20000 м  {ливн. осадки}  10/6 200 м средняя 
[St|As op]
+7.6 +6.7 94 +8  1003.3  -0.5  706  276  +5.4    0.5    влажная 
03 18.09.17 230 (ЮЗ) 20000 м  дождь  10/8 300 м средняя 
[St|As op]
+10.3 +8.7 90 +11  1002.7  706  273           
06 18.09.17 240 (ЮЗ) <0050 м  дождь  10/8 300 м средняя 
[St|As op]
+11.2 +10.4 95 +14  1002.7  0.3  706  271           
09 18.09.17 230 (ЮЗ) <0050 м  дождь  10/8 300 м средняя 
[St|As op]
+10.3 +8.7 90 +11    706  273           
12 18.09.17 220 (ЮЗ) 10 км  слаб. дождь  10/8 200 м средняя 
[St|As op]
+10.5 +9.8 95 +13  1005.6  1.5  708  273    +11.2     
15 18.09.17 250 (З) 20000 м  {дождь}  10/6 300 м средняя 
[St|As op]
+8.5 +6.1 85 +9  1008  1.8  710  276           
18 18.09.17 220 (ЮЗ) 20000 м  {дождь}  10/5 600 м средняя 
[St|Ac As]
+7.7 +5.3 85 +8  1010.1  1.8  711  278           
21 18.09.17 240 (ЮЗ) 20000 м    10/5 1000 м средняя 
[Sc|Ac trans]
+6 +3.3 83 +5  1012.1  1.5  712  280           
00 19.09.17 260 (З) 20000 м    10/0 средняя 
[Ac und]
+5.4 +1.2 74 +4  1014.3  1.8  713  282  +5.2    0.0    влажная 
03 19.09.17 240 (ЮЗ) 20000 м    9/6 1000 м средняя 
[Sc|Ac As]
+8.8 +2.8 66 +8  1013.8  0.4  714  278           
06 19.09.17 250 (З) 20000 м    10/0 средняя, верхняя 
[As trans|Cs]
+12.9 +4.1 55 +12  1011.6  -1.2  713  274           
09 19.09.17 250 (З) 20000 м    9/0 средняя, верхняя 
[As trans|Cs]
+13.5 +3.3 50 +14  1011  -0.4  712  273           
12 19.09.17 120 (ЮВ) 20000 м    3/0 средняя, верхняя 
[As trans|Ci sp]
+7.1 +2.9 75 +8  1012.5  712  279    +14.3       
15 19.09.17 260 (З) 20000 м    ясно 
+3.3 +2.2 92 +4  1013.5  0.1  713  283           
18 19.09.17 тихо ()   20000 м    4/0 верхняя 
[Ci sp]
+2.5 +1.9 96 +3  1012.7  -0.9  712  284           
21 19.09.17 080 (В) 10 км  туман на расстоянии  ясно 
+1.5 +1.1 97 +2  1011.6  -1.2  711  285           
00 20.09.17 060 (СВ) 0200 м  туман  ?/?  
+3.1 +2.8 98 +4  1010.6  -0.6  710  282  +0.9        влажная 
03 20.09.17 040 (СВ) 20000 м  {туман}  1/0 верхняя 
[Ci fib]
+15.3 +6.3 55 +16  1005.5  -2.1  709  269           
06 20.09.17 030 (СВ) 20000 м  {туман}  1/0 верхняя 
[Ci fib]
+22.3 +3.9 30 +22  1001.1  -2.8  707  263           
09 20.09.17 250 (З) 20000 м    6/0 средняя, верхняя 
[Ac cast|Cc]
+24.1 +4.4 28 +24  999.2  -1.4  706  261           
12 20.09.17 160 (Ю) 20000 м    3/0 средняя, верхняя 
[Ac lent|Ci sp]
+15.5 +2.5 42 +17  1001.3  0.2  706  269    +24.7       
15 20.09.17 070 (В) 20000 м    3/0 верхняя 
[Ci sp]
+10 +4 66 +10  1002.1  -0.3  706  274           
18 20.09.17 070 (В) 20000 м    1/0 верхняя 
[Ci sp]
+9 +2.9 66 +9  1001.2  -1.1  705  274           
21 20.09.17 080 (В) 20000 м    1/0 верхняя 
[Ci sp]
+4.3 +3.1 92 +4  1000.9  -1.3  704  279           
00 21.09.17 120 (ЮВ) 20000 м    8/0 верхняя 
[Ci sp]
+10.3 +2.9 60 +9  997.7  -1.8  702  272  +3.4        влажная 
Время (UTC), дата Ветер
(°,м/с) 
Видим.   Явления Облачность Т
(°С)
Тd
(°С)
f(%) Тe
(°С)
Pmin
(гПа)
dP
(гПа)
Po
(мм)
O2
(г/м3)
Тmin Tmax R s Состояние
почвы

Для получения пояснительной информации подведите курсор к названию столбца.

ПОГОДА в Сретенске - архив

Всё, что Вы хотите узнать о погоде в Сретенске - удобно и подробно!

Выберите нужную дату (начиная с 1 января 2015* года) и нажмите кнопку "Найти".
Будут отображены архивные сводки погоды по пункту Сретенск, начиная с указанной даты.


Отображать данные в формате CSV (для использования в таблицах Excel)


Внимание! Наш архив погоды предназначен исключительно для личного некоммерческого использования в познавательных целях. Если Вам необходимы официальные справки о состоянии погоды (для производственных, юридических, коммерческих и т.п. целей), обращайтесь в органы Росгидромета.

*Примечание: данная дата относится к архиву по метеостанциям СССР (Россия, СНГ, Балтия).
Архив по метеостанциям Зарубежной Европы и Азии (кроме Китая) хранится 10 дней, по другим регионам земного шара (Китай, Африка, Америка, Австралия, Океания) - 1 день.

Сретенск - район местоположения метеостанции


Название, широта, долгота, высота метеостанции:
Сретенск 52.2°ш. 117.7°д. 525 м над ур. моря [Российская Федерация]

Дополнительная информация

В oтличие oт бoльшинства пoгoдных сайтoв мы публикуем пoдрoбную метеoинфoрмацию в детальнoм прoфессиoнальнoм фoрмате.

Характеристики температуры и влажнoсти вoздуха измеряются на высoте 2 м в тени вдали oт зданий и деревьев.
Скoрoсть ветра измеряется на высoте 10 м (на урoвне рoста челoвека скoрoсть ветра ниже в 1.5-2 раза). Если метеoстанция нахoдится в гoрoде или в лесу, тo скoрoсть ветра занижена на 2-4 м/с пo сравнению с oткрытым местoм. Скoрoсть ветра над акватoриями крупных рек и oзёр, а также на вершинах хoлмoв на 2-5 м/с выше, чем в oбычных услoвиях.
Атмoсфернoе давление в разных тoчках местнoсти мoжет значительнo oтличаться oт давления на метеoстанции, в зависимoсти oт услoвий рельефа (при пoдъёме на 10 м давление пoнижается примернo на 1 мм рт.ст.).